| time (UTC) | temp C | wind direction | speed KPH | gust KPH | rain 1hr cm | rain 24hr cm | rain mn cm | humidity % | barometer mb |
| 20260506035020 | 9 | 114 | 6.4 | 9.7 | 0.00 | 0.00 | 0.00 | 66 | 1013.8 |
| 20260506034518 | 9 | 25 | 9.7 | 12.9 | 0.00 | 0.00 | 0.00 | 67 | 1013.8 |
| 20260506034015 | 9 | 22 | 8.0 | 12.9 | 0.00 | 0.00 | 0.00 | 68 | 1013.5 |
| 20260506033512 | 9 | 28 | 9.7 | 11.3 | 0.00 | 0.00 | 0.00 | 68 | 1013.7 |
| 20260506033009 | 9 | 78 | 4.8 | 4.8 | 0.00 | 0.00 | 0.00 | 70 | 1013.6 |
| 20260506032506 | 9 | 132 | 3.2 | 3.2 | 0.00 | 0.00 | 0.00 | 71 | 1013.2 |
| 20260506032002 | 9 | 67 | 3.2 | 3.2 | 0.00 | 0.00 | 0.00 | 71 | 1013.1 |
| 20260506031501 | 9 | 60 | 9.7 | 12.9 | 0.00 | 0.00 | 0.00 | 72 | 1012.7 |
| 20260506030957 | 9 | 36 | 8.0 | 12.9 | 0.00 | 0.00 | 0.00 | 72 | 1012.5 |
| 20260506030455 | 9 | 44 | 8.0 | 12.9 | 0.00 | 0.00 | 0.00 | 72 | 1012.5 |
| 20260506025952 | 9 | 4 | 9.7 | 16.1 | 0.00 | 0.00 | 0.00 | 73 | 1012.5 |
| 20260506025449 | 9 | 72 | 4.8 | 8.0 | 0.00 | 0.00 | 0.00 | 73 | 1012.7 |
| 20260506024945 | 9 | 28 | 6.4 | 11.3 | 0.00 | 0.00 | 0.00 | 74 | 1012.7 |
| 20260506024442 | 9 | 34 | 8.0 | 12.9 | 0.00 | 0.00 | 0.00 | 74 | 1012.9 |
| 20260506023938 | 9 | 57 | 4.8 | 4.8 | 0.00 | 0.00 | 0.00 | 75 | 1012.8 |
| 20260506023435 | 9 | 343 | 8.0 | 11.3 | 0.00 | 0.00 | 0.00 | 75 | 1012.7 |
| 20260506022932 | 9 | 95 | 8.0 | 11.3 | 0.00 | 0.00 | 0.00 | 75 | 1012.8 |
| 20260506022430 | 9 | 21 | 14.5 | 16.1 | 0.00 | 0.00 | 0.00 | 75 | 1013.0 |
| 20260506021927 | 9 | 35 | 8.0 | 11.3 | 0.00 | 0.00 | 0.00 | 75 | 1012.8 |
| 20260506021424 | 9 | 25 | 8.0 | 11.3 | 0.00 | 0.00 | 0.00 | 74 | 1012.9 |
| 20260506020921 | 9 | 72 | 1.6 | 1.6 | 0.00 | 0.00 | 0.00 | 74 | 1012.9 |
| 20260506020419 | 9 | 12 | 9.7 | 11.3 | 0.00 | 0.00 | 0.00 | 74 | 1012.7 |
| 20260506015916 | 9 | 55 | 8.0 | 9.7 | 0.00 | 0.00 | 0.00 | 74 | 1012.7 |
| 20260506015414 | 9 | 73 | 8.0 | 11.3 | 0.00 | 0.00 | 0.00 | 74 | 1012.5 |
| 20260506014910 | 9 | 31 | 8.0 | 11.3 | 0.00 | 0.00 | 0.00 | 74 | 1012.4 |
| 20260506014407 | 9 | 336 | 4.8 | 4.8 | 0.00 | 0.00 | 0.00 | 74 | 1012.6 |
| 20260506013904 | 9 | 119 | 1.6 | 3.2 | 0.00 | 0.00 | 0.00 | 74 | 1012.2 |
| 20260506013402 | 9 | 180 | 14.5 | 20.9 | 0.00 | 0.00 | 0.00 | 74 | 1012.4 |
| 20260506012857 | 10 | 105 | 6.4 | 9.7 | 0.00 | 0.00 | 0.00 | 73 | 1012.2 |
| 20260506012354 | 10 | 73 | 6.4 | 9.7 | 0.00 | 0.00 | 0.00 | 73 | 1012.5 |
| 20260506011852 | 10 | 58 | 8.0 | 11.3 | 0.00 | 0.00 | 0.00 | 73 | 1012.2 |
| 20260506011349 | 10 | 45 | 4.8 | 8.0 | 0.00 | 0.00 | 0.00 | 73 | 1012.5 |
| 20260506010846 | 10 | 13 | 8.0 | 12.9 | 0.00 | 0.00 | 0.00 | 73 | 1012.1 |
| 20260506010344 | 10 | 109 | 6.4 | 9.7 | 0.00 | 0.00 | 0.00 | 73 | 1012.1 |
| 20260506005841 | 10 | 48 | 6.4 | 8.0 | 0.00 | 0.00 | 0.00 | 72 | 1011.8 |
| 20260506005337 | 10 | 73 | 3.2 | 4.8 | 0.00 | 0.00 | 0.00 | 72 | 1011.9 |
| 20260506004833 | 10 | 35 | 6.4 | 9.7 | 0.00 | 0.00 | 0.00 | 72 | 1011.6 |
| 20260506004331 | 10 | 27 | 8.0 | 9.7 | 0.00 | 0.00 | 0.00 | 72 | 1011.4 |
| 20260506003827 | 10 | 95 | 6.4 | 11.3 | 0.00 | 0.00 | 0.00 | 72 | 1011.1 |
| 20260506003323 | 10 | 41 | 3.2 | 4.8 | 0.00 | 0.00 | 0.00 | 72 | 1011.1 |
| 20260506002820 | 10 | 94 | 6.4 | 8.0 | 0.00 | 0.00 | 0.00 | 72 | 1011.1 |
| 20260506002316 | 10 | 38 | 4.8 | 8.0 | 0.00 | 0.00 | 0.00 | 72 | 1011.1 |
| 20260506001812 | 10 | 18 | 11.3 | 16.1 | 0.00 | 0.00 | 0.00 | 71 | 1010.9 |
| 20260506001309 | 10 | 49 | 4.8 | 4.8 | 0.00 | 0.00 | 0.00 | 71 | 1010.8 |
| 20260506000806 | 10 | 344 | 6.4 | 11.3 | 0.00 | 0.00 | 0.00 | 71 | 1010.8 |
| 20260506000304 | 10 | 348 | 8.0 | 9.7 | 0.00 | 0.00 | 0.00 | 70 | 1011.0 |
| 20260505235800 | 10 | 33 | 6.4 | 9.7 | 0.00 | 0.00 | 0.00 | 70 | 1011.0 |
| 20260505235258 | 10 | 66 | 4.8 | 4.8 | 0.00 | 0.00 | 0.00 | 70 | 1011.0 |
| 20260505234755 | 10 | 20 | 9.7 | 12.9 | 0.00 | 0.00 | 0.00 | 69 | 1010.8 |
| 20260505234253 | 10 | 81 | 4.8 | 8.0 | 0.00 | 0.00 | 0.00 | 69 | 1010.8 |
| 20260505233749 | 10 | 45 | 11.3 | 16.1 | 0.00 | 0.00 | 0.00 | 69 | 1010.8 |
| 20260505233247 | 10 | 142 | 1.6 | 3.2 | 0.00 | 0.00 | 0.00 | 69 | 1010.9 |
| 20260505232744 | 10 | 36 | 9.7 | 11.3 | 0.00 | 0.00 | 0.00 | 68 | 1011.1 |
| 20260505232241 | 11 | 357 | 8.0 | 9.7 | 0.00 | 0.00 | 0.00 | 68 | 1011.4 |
| 20260505231738 | 11 | 70 | 4.8 | 4.8 | 0.00 | 0.00 | 0.00 | 68 | 1011.4 |
| 20260505231237 | 11 | 56 | 3.2 | 4.8 | 0.00 | 0.00 | 0.00 | 69 | 1011.0 |
| 20260505230735 | 11 | 59 | 6.4 | 8.0 | 0.00 | 0.00 | 0.00 | 68 | 1011.1 |
| 20260505230231 | 11 | 72 | 3.2 | 3.2 | 0.00 | 0.00 | 0.00 | 69 | 1010.8 |
| 20260505225728 | 11 | 271 | 8.0 | 16.1 | 0.00 | 0.00 | 0.00 | 68 | 1010.4 |
| 20260505225225 | 11 | 39 | 4.8 | 8.0 | 0.00 | 0.00 | 0.00 | 67 | 1010.4 |
| 20260505224720 | 11 | 64 | 3.2 | 4.8 | 0.00 | 0.00 | 0.00 | 67 | 1010.6 |
| 20260505224218 | 11 | 43 | 8.0 | 11.3 | 0.00 | 0.00 | 0.00 | 67 | 1010.5 |
| 20260505223715 | 11 | 30 | 9.7 | 12.9 | 0.00 | 0.00 | 0.00 | 67 | 1010.4 |
| 20260505223211 | 11 | 36 | 6.4 | 9.7 | 0.00 | 0.00 | 0.00 | 66 | 1010.6 |
| 20260505222707 | 11 | 39 | 9.7 | 14.5 | 0.00 | 0.00 | 0.00 | 66 | 1010.6 |
| 20260505222203 | 11 | 49 | 9.7 | 16.1 | 0.00 | 0.00 | 0.00 | 66 | 1010.6 |
| 20260505221701 | 11 | 338 | 9.7 | 11.3 | 0.00 | 0.00 | 0.00 | 66 | 1010.4 |
| 20260505221157 | 11 | 30 | 9.7 | 17.7 | 0.00 | 0.00 | 0.00 | 66 | 1010.0 |
| 20260505220654 | 11 | 299 | 12.9 | 14.5 | 0.00 | 0.00 | 0.00 | 66 | 1010.2 |
| 20260505220152 | 12 | 72 | 12.9 | 17.7 | 0.00 | 0.00 | 0.00 | 66 | 1010.1 |
| 20260505215650 | 12 | 60 | 4.8 | 9.7 | 0.00 | 0.00 | 0.00 | 65 | 1010.1 |
| 20260505215148 | 12 | 17 | 4.8 | 8.0 | 0.00 | 0.00 | 0.00 | 65 | 1010.3 |
| 20260505214645 | 12 | 123 | 4.8 | 8.0 | 0.00 | 0.00 | 0.00 | 65 | 1009.9 |
| 20260505214142 | 12 | 70 | 14.5 | 17.7 | 0.00 | 0.00 | 0.00 | 65 | 1010.0 |
| 20260505213640 | 12 | 16 | 11.3 | 14.5 | 0.00 | 0.00 | 0.00 | 65 | 1009.4 |
| 20260505213136 | 12 | 40 | 14.5 | 22.5 | 0.00 | 0.00 | 0.00 | 65 | 1009.3 |
| 20260505212632 | 12 | 50 | 8.0 | 12.9 | 0.00 | 0.00 | 0.00 | 64 | 1009.5 |
| 20260505212130 | 12 | 350 | 11.3 | 14.5 | 0.00 | 0.00 | 0.00 | 65 | 1009.5 |
| 20260505211627 | 12 | 336 | 11.3 | 14.5 | 0.00 | 0.00 | 0.00 | 65 | 1009.6 |
| 20260505211124 | 12 | 331 | 12.9 | 16.1 | 0.00 | 0.00 | 0.00 | 65 | 1009.8 |
| 20260505210621 | 12 | 14 | 14.5 | 24.1 | 0.00 | 0.00 | 0.00 | 66 | 1009.5 |
| 20260505210117 | 12 | 36 | 9.7 | 16.1 | 0.00 | 0.00 | 0.00 | 65 | 1009.2 |
| 20260505205615 | 12 | 79 | 9.7 | 12.9 | 0.00 | 0.00 | 0.00 | 65 | 1009.1 |
| 20260505205113 | 12 | 8 | 8.0 | 11.3 | 0.00 | 0.00 | 0.00 | 66 | 1009.0 |
| 20260505204610 | 12 | 1 | 8.0 | 11.3 | 0.00 | 0.00 | 0.00 | 67 | 1009.4 |
| 20260505204107 | 12 | 36 | 8.0 | 11.3 | 0.00 | 0.00 | 0.00 | 66 | 1010.0 |
| 20260505203604 | 12 | 36 | 6.4 | 11.3 | 0.00 | 0.00 | 0.00 | 67 | 1010.5 |
| 20260505203101 | 12 | 74 | 14.5 | 22.5 | 0.00 | 0.00 | 0.00 | 67 | 1010.1 |
| 20260505202556 | 12 | 60 | 14.5 | 17.7 | 0.00 | 0.00 | 0.00 | 66 | 1009.5 |
| 20260505202053 | 12 | 45 | 9.7 | 16.1 | 0.00 | 0.00 | 0.00 | 66 | 1009.2 |
| 20260505201550 | 12 | 359 | 14.5 | 17.7 | 0.00 | 0.00 | 0.00 | 67 | 1009.3 |
| 20260505201048 | 12 | 64 | 8.0 | 17.7 | 0.00 | 0.00 | 0.00 | 67 | 1009.1 |
| 20260505200545 | 12 | 43 | 8.0 | 11.3 | 0.00 | 0.00 | 0.00 | 67 | 1009.3 |
| 20260505200041 | 12 | 61 | 11.3 | 14.5 | 0.00 | 0.00 | 0.00 | 67 | 1009.1 |
| 20260505195532 | 12 | 9 | 9.7 | 11.3 | 0.00 | 0.00 | 0.00 | 68 | 1009.4 |
| 20260505195030 | 12 | 101 | 6.4 | 11.3 | 0.00 | 0.00 | 0.00 | 68 | 1009.1 |
| 20260505194527 | 12 | 347 | 9.7 | 12.9 | 0.00 | 0.00 | 0.00 | 68 | 1009.0 |
| 20260505194022 | 12 | 34 | 8.0 | 12.9 | 0.00 | 0.00 | 0.00 | 68 | 1009.2 |
| 20260505193519 | 12 | 17 | 8.0 | 12.9 | 0.00 | 0.00 | 0.00 | 69 | 1009.1 |
| 20260505193016 | 12 | 66 | 4.8 | 11.3 | 0.00 | 0.00 | 0.00 | 69 | 1009.2 |
| 20260505192516 | 12 | 69 | 12.9 | 14.5 | 0.00 | 0.00 | 0.00 | 71 | 1009.1 |
| 20260505192013 | 12 | 35 | 9.7 | 14.5 | 0.00 | 0.00 | 0.00 | 71 | 1009.3 |
| 20260505191511 | 12 | 326 | 8.0 | 11.3 | 0.00 | 0.00 | 0.00 | 72 | 1009.0 |
| 20260505191008 | 12 | 35 | 8.0 | 11.3 | 0.00 | 0.00 | 0.00 | 71 | 1009.0 |
| 20260505190502 | 12 | 39 | 8.0 | 11.3 | 0.00 | 0.00 | 0.00 | 72 | 1008.8 |
| 20260505185958 | 12 | 23 | 8.0 | 9.7 | 0.00 | 0.00 | 0.00 | 73 | 1009.1 |
| 20260505185456 | 12 | 53 | 4.8 | 8.0 | 0.00 | 0.00 | 0.00 | 73 | 1009.0 |
| 20260505184952 | 12 | 310 | 11.3 | 16.1 | 0.00 | 0.00 | 0.00 | 73 | 1009.1 |
| 20260505184449 | 12 | 35 | 20.9 | 29.0 | 0.00 | 0.00 | 0.00 | 72 | 1009.0 |
| 20260505183945 | 12 | 48 | 11.3 | 14.5 | 0.00 | 0.00 | 0.00 | 72 | 1008.9 |
| 20260505183443 | 12 | 73 | 4.8 | 8.0 | 0.00 | 0.00 | 0.00 | 72 | 1008.9 |
| 20260505182939 | 13 | 345 | 11.3 | 16.1 | 0.00 | 0.00 | 0.00 | 71 | 1008.7 |
| 20260505182436 | 13 | 58 | 11.3 | 12.9 | 0.00 | 0.00 | 0.00 | 71 | 1008.8 |
| 20260505181932 | 13 | 67 | 1.6 | 3.2 | 0.00 | 0.00 | 0.00 | 71 | 1008.9 |
| 20260505181430 | 13 | 77 | 9.7 | 12.9 | 0.00 | 0.00 | 0.00 | 70 | 1008.9 |
| 20260505180926 | 13 | 19 | 14.5 | 17.7 | 0.00 | 0.00 | 0.00 | 70 | 1008.4 |
| 20260505180423 | 13 | 25 | 8.0 | 11.3 | 0.00 | 0.00 | 0.00 | 71 | 1008.6 |
| 20260505175919 | 13 | 0 | 17.7 | 24.1 | 0.00 | 0.00 | 0.00 | 70 | 1008.2 |
| 20260505175416 | 13 | 357 | 12.9 | 17.7 | 0.00 | 0.00 | 0.00 | 70 | 1008.4 |
| 20260505174912 | 13 | 7 | 8.0 | 11.3 | 0.00 | 0.00 | 0.00 | 70 | 1008.1 |
| 20260505174410 | 13 | 82 | 8.0 | 9.7 | 0.00 | 0.00 | 0.00 | 70 | 1007.9 |
| 20260505173906 | 13 | 31 | 4.8 | 4.8 | 0.00 | 0.00 | 0.00 | 70 | 1007.9 |
| 20260505173402 | 13 | 6 | 8.0 | 11.3 | 0.00 | 0.00 | 0.00 | 71 | 1008.0 |
| 20260505172859 | 13 | 95 | 3.2 | 4.8 | 0.00 | 0.00 | 0.00 | 71 | 1007.9 |
| 20260505172357 | 13 | 32 | 8.0 | 9.7 | 0.00 | 0.00 | 0.00 | 71 | 1007.7 |
| 20260505171857 | 13 | 50 | 4.8 | 9.7 | 0.00 | 0.00 | 0.00 | 72 | 1007.8 |
| 20260505171354 | 13 | 34 | 8.0 | 11.3 | 0.00 | 0.00 | 0.00 | 72 | 1007.9 |
| 20260505170850 | 13 | 21 | 9.7 | 17.7 | 0.00 | 0.00 | 0.00 | 72 | 1007.8 |
| 20260505170347 | 13 | 39 | 9.7 | 12.9 | 0.00 | 0.00 | 0.00 | 72 | 1007.5 |
| 20260505165842 | 13 | 6 | 8.0 | 11.3 | 0.00 | 0.00 | 0.00 | 73 | 1007.5 |
| 20260505165338 | 13 | 57 | 8.0 | 9.7 | 0.00 | 0.00 | 0.00 | 73 | 1007.3 |
| 20260505164834 | 13 | 27 | 4.8 | 8.0 | 0.00 | 0.00 | 0.00 | 73 | 1007.2 |
| 20260505164331 | 13 | 22 | 12.9 | 14.5 | 0.00 | 0.00 | 0.00 | 74 | 1007.5 |
| 20260505163829 | 13 | 48 | 4.8 | 9.7 | 0.00 | 0.00 | 0.00 | 74 | 1007.1 |
| 20260505163328 | 13 | 22 | 8.0 | 11.3 | 0.00 | 0.00 | 0.00 | 74 | 1007.0 |
| 20260505162826 | 13 | 66 | 16.1 | 24.1 | 0.00 | 0.00 | 0.00 | 74 | 1006.6 |
| 20260505162322 | 13 | 75 | 8.0 | 14.5 | 0.00 | 0.00 | 0.00 | 74 | 1006.7 |
| 20260505161819 | 13 | 55 | 8.0 | 12.9 | 0.00 | 0.00 | 0.00 | 75 | 1006.4 |
| 20260505161316 | 13 | 70 | 14.5 | 17.7 | 0.00 | 0.00 | 0.00 | 75 | 1006.3 |
| 20260505160813 | 13 | 24 | 11.3 | 16.1 | 0.00 | 0.00 | 0.00 | 74 | 1006.1 |
| 20260505160311 | 13 | 19 | 9.7 | 12.9 | 0.00 | 0.00 | 0.00 | 75 | 1005.9 |
| 20260505153250 | 15 | 14 | 19.3 | 25.7 | 0.00 | 0.00 | 0.00 | 75 | 1004.9 |
| 20260505152747 | 15 | 59 | 12.9 | 17.7 | 0.00 | 0.00 | 0.00 | 75 | 1005.0 |
| 20260505152243 | 15 | 29 | 16.1 | 20.9 | 0.00 | 0.00 | 0.00 | 75 | 1004.8 |
| 20260505151737 | 15 | 357 | 16.1 | 17.7 | 0.00 | 0.00 | 0.00 | 75 | 1004.6 |
| 20260505151235 | 16 | 86 | 8.0 | 11.3 | 0.00 | 0.00 | 0.00 | 75 | 1004.5 |
| 20260505150731 | 16 | 89 | 11.3 | 14.5 | 0.00 | 0.00 | 0.00 | 75 | 1004.4 |
| 20260505150229 | 16 | 72 | 9.7 | 12.9 | 0.00 | 0.00 | 0.00 | 74 | 1003.9 |
| 20260505140154 | 22 | 98 | 0.0 | 0.0 | 0.00 | 0.00 | 0.00 | 70 | 1002.5 |
| 20260505130118 | 20 | 138 | 0.0 | 0.0 | 0.00 | 0.00 | 0.00 | 73 | 1001.8 |
| 20260505124607 | 20 | 137 | 0.0 | 0.0 | 0.00 | 0.00 | 0.00 | 75 | 1001.9 |
| 20260505124103 | 20 | 134 | 0.0 | 0.0 | 0.00 | 0.00 | 0.00 | 75 | 1001.9 |
| 20260505123600 | 20 | 134 | 0.0 | 0.0 | 0.00 | 0.00 | 0.00 | 74 | 1001.7 |
| 20260505123056 | 20 | 134 | 0.0 | 0.0 | 0.00 | 0.00 | 0.00 | 74 | 1001.7 |
| 20260505122553 | 20 | 134 | 0.0 | 0.0 | 0.00 | 0.00 | 0.00 | 74 | 1001.8 |
| 20260505122050 | 20 | 134 | 0.0 | 0.0 | 0.00 | 0.00 | 0.00 | 74 | 1001.5 |
| 20260505121547 | 20 | 133 | 0.0 | 0.0 | 0.00 | 0.00 | 0.00 | 74 | 1001.5 |
| 20260505121044 | 20 | 133 | 0.0 | 1.6 | 0.00 | 0.00 | 0.00 | 73 | 1001.4 |
| 20260505120540 | 20 | 109 | 0.0 | 0.0 | 0.00 | 0.00 | 0.00 | 73 | 1001.5 |
| 20260505120035 | 20 | 107 | 0.0 | 1.6 | 0.00 | 0.00 | 0.00 | 73 | 1001.4 |
| 20260505115530 | 20 | 150 | 1.6 | 3.2 | 0.00 | 0.00 | 0.00 | 73 | 1001.2 |
| 20260505115028 | 20 | 359 | 0.0 | 1.6 | 0.00 | 0.00 | 0.00 | 73 | 1001.0 |
| 20260505114525 | 20 | 100 | 1.6 | 3.2 | 0.00 | 0.00 | 0.00 | 73 | 1000.9 |
| 20260505114021 | 20 | 114 | 0.0 | 1.6 | 0.00 | 0.00 | 0.00 | 71 | 1001.0 |
| 20260505113518 | 21 | 92 | 4.8 | 4.8 | 0.00 | 0.00 | 0.00 | 70 | 1000.8 |
| 20260505113014 | 21 | 212 | 0.0 | 0.0 | 0.00 | 0.00 | 0.00 | 69 | 1000.1 |
| 20260505112511 | 21 | 159 | 0.0 | 0.0 | 0.00 | 0.00 | 0.00 | 69 | 999.8 |
| 20260505112009 | 21 | 174 | 0.0 | 3.2 | 0.00 | 0.00 | 0.00 | 69 | 999.9 |
| 20260505111502 | 21 | 217 | 3.2 | 3.2 | 0.00 | 0.00 | 0.00 | 68 | 999.6 |
| 20260505110958 | 21 | 170 | 3.2 | 4.8 | 0.00 | 0.00 | 0.00 | 68 | 999.7 |
| 20260505110455 | 21 | 152 | 0.0 | 1.6 | 0.00 | 0.00 | 0.00 | 68 | 999.8 |
| 20260505101927 | 22 | 288 | 12.9 | 16.1 | 0.00 | 0.00 | 0.00 | 67 | 999.1 |
| 20260505101421 | 22 | 159 | 4.8 | 8.0 | 0.00 | 0.00 | 0.00 | 67 | 999.0 |
| 20260505100917 | 22 | 216 | 3.2 | 9.7 | 0.00 | 0.00 | 0.00 | 67 | 999.2 |
| 20260505100414 | 22 | 179 | 6.4 | 11.3 | 0.00 | 0.00 | 0.00 | 67 | 999.0 |
| 20260505095909 | 22 | 212 | 12.9 | 20.9 | 0.00 | 0.00 | 0.00 | 67 | 999.1 |
| 20260505095407 | 22 | 146 | 9.7 | 14.5 | 0.00 | 0.00 | 0.00 | 67 | 999.0 |
| 20260505094903 | 22 | 140 | 1.6 | 4.8 | 0.00 | 0.00 | 0.00 | 67 | 999.1 |
| 20260505094400 | 22 | 154 | 6.4 | 12.9 | 0.00 | 0.00 | 0.00 | 67 | 999.1 |
| 20260505093855 | 22 | 209 | 8.0 | 11.3 | 0.00 | 0.00 | 0.00 | 67 | 999.2 |
| 20260505093353 | 22 | 152 | 4.8 | 8.0 | 0.00 | 0.00 | 0.00 | 67 | 999.2 |
| 20260505092850 | 22 | 155 | 6.4 | 14.5 | 0.00 | 0.00 | 0.00 | 67 | 998.8 |
| 20260505092348 | 22 | 236 | 11.3 | 16.1 | 0.00 | 0.00 | 0.00 | 67 | 999.0 |
| 20260505091845 | 22 | 146 | 3.2 | 8.0 | 0.00 | 0.00 | 0.00 | 67 | 998.7 |
| 20260505091343 | 22 | 197 | 9.7 | 14.5 | 0.00 | 0.00 | 0.00 | 67 | 998.9 |
| 20260505090841 | 22 | 214 | 9.7 | 16.1 | 0.00 | 0.00 | 0.00 | 67 | 999.1 |
| 20260505090339 | 22 | 175 | 4.8 | 8.0 | 0.00 | 0.00 | 0.00 | 67 | 999.0 |
| 20260505085836 | 22 | 155 | 4.8 | 8.0 | 0.00 | 0.00 | 0.00 | 67 | 999.1 |
| 20260505085334 | 22 | 189 | 9.7 | 11.3 | 0.00 | 0.00 | 0.00 | 67 | 999.0 |
| 20260505084831 | 22 | 190 | 8.0 | 9.7 | 0.00 | 0.00 | 0.00 | 67 | 999.2 |
| 20260505084329 | 22 | 223 | 11.3 | 17.7 | 0.00 | 0.00 | 0.00 | 67 | 999.5 |
| 20260505083826 | 22 | 214 | 16.1 | 20.9 | 0.00 | 0.00 | 0.00 | 67 | 999.5 |
| 20260505083324 | 22 | 223 | 11.3 | 17.7 | 0.00 | 0.00 | 0.00 | 67 | 999.5 |
| 20260505082820 | 22 | 193 | 6.4 | 8.0 | 0.00 | 0.00 | 0.00 | 67 | 999.3 |
| 20260505082317 | 22 | 143 | 3.2 | 8.0 | 0.00 | 0.00 | 0.00 | 67 | 999.5 |
| 20260505081813 | 22 | 194 | 8.0 | 12.9 | 0.00 | 0.00 | 0.00 | 67 | 999.5 |
| 20260505081310 | 22 | 160 | 8.0 | 16.1 | 0.00 | 0.00 | 0.00 | 67 | 999.9 |
| 20260505080806 | 22 | 160 | 6.4 | 9.7 | 0.00 | 0.00 | 0.00 | 67 | 999.8 |
| 20260505080303 | 22 | 171 | 4.8 | 8.0 | 0.00 | 0.00 | 0.00 | 67 | 999.8 |
| 20260505075758 | 22 | 117 | 16.1 | 29.0 | 0.00 | 0.00 | 0.00 | 67 | 999.8 |
| 20260505075255 | 22 | 122 | 4.8 | 9.7 | 0.00 | 0.00 | 0.00 | 67 | 999.9 |
| 20260505074753 | 22 | 201 | 9.7 | 14.5 | 0.00 | 0.00 | 0.00 | 67 | 999.7 |
| 20260505074250 | 22 | 217 | 11.3 | 12.9 | 0.00 | 0.00 | 0.00 | 67 | 999.8 |
| 20260505073747 | 22 | 185 | 8.0 | 14.5 | 0.00 | 0.00 | 0.00 | 67 | 999.9 |
| 20260505073245 | 22 | 171 | 6.4 | 9.7 | 0.00 | 0.00 | 0.00 | 68 | 999.9 |
| 20260505072741 | 22 | 202 | 11.3 | 12.9 | 0.00 | 0.00 | 0.00 | 67 | 1000.1 |
| 20260505072237 | 22 | 221 | 14.5 | 17.7 | 0.00 | 0.00 | 0.00 | 67 | 1000.1 |
| 20260505071733 | 22 | 141 | 4.8 | 11.3 | 0.00 | 0.00 | 0.00 | 67 | 1000.1 |
| 20260505071230 | 22 | 175 | 9.7 | 12.9 | 0.00 | 0.00 | 0.00 | 67 | 1000.3 |
| 20260505070728 | 22 | 142 | 4.8 | 11.3 | 0.00 | 0.00 | 0.00 | 67 | 1000.3 |
| 20260505070224 | 22 | 248 | 8.0 | 12.9 | 0.00 | 0.00 | 0.00 | 67 | 1000.4 |
| 20260505065720 | 22 | 130 | 9.7 | 12.9 | 0.00 | 0.00 | 0.00 | 67 | 1000.4 |
| 20260505065217 | 22 | 178 | 8.0 | 12.9 | 0.00 | 0.00 | 0.00 | 67 | 1000.4 |
| 20260505064714 | 22 | 179 | 4.8 | 11.3 | 0.00 | 0.00 | 0.00 | 66 | 1000.8 |
| 20260505064212 | 22 | 230 | 8.0 | 14.5 | 0.00 | 0.00 | 0.00 | 66 | 1000.8 |
| 20260505063709 | 22 | 122 | 3.2 | 9.7 | 0.00 | 0.00 | 0.00 | 66 | 1000.6 |
| 20260505063205 | 22 | 125 | 6.4 | 11.3 | 0.00 | 0.00 | 0.00 | 66 | 1000.7 |
| 20260505062701 | 22 | 135 | 4.8 | 9.7 | 0.00 | 0.00 | 0.00 | 66 | 1000.4 |
| 20260505062159 | 22 | 211 | 8.0 | 11.3 | 0.00 | 0.00 | 0.00 | 65 | 1000.8 |
| 20260505061656 | 22 | 186 | 4.8 | 12.9 | 0.00 | 0.00 | 0.00 | 66 | 1000.7 |
| 20260505061154 | 22 | 194 | 8.0 | 14.5 | 0.00 | 0.00 | 0.00 | 66 | 1000.9 |
| 20260505060651 | 22 | 193 | 11.3 | 16.1 | 0.00 | 0.00 | 0.00 | 66 | 1000.6 |
| 20260505060148 | 22 | 228 | 17.7 | 22.5 | 0.00 | 0.00 | 0.00 | 66 | 1000.6 |
| 20260505055643 | 22 | 177 | 6.4 | 9.7 | 0.00 | 0.00 | 0.00 | 65 | 1000.9 |
| 20260505055140 | 22 | 200 | 9.7 | 12.9 | 0.00 | 0.00 | 0.00 | 65 | 1000.9 |
| 20260505054637 | 22 | 173 | 9.7 | 16.1 | 0.00 | 0.00 | 0.00 | 65 | 1001.0 |
| 20260505054135 | 22 | 279 | 4.8 | 8.0 | 0.00 | 0.00 | 0.00 | 65 | 1001.0 |
| 20260505053633 | 22 | 177 | 9.7 | 14.5 | 0.00 | 0.00 | 0.00 | 65 | 1001.0 |
| 20260505053129 | 22 | 184 | 8.0 | 16.1 | 0.00 | 0.00 | 0.00 | 65 | 1001.0 |
| 20260505052626 | 22 | 190 | 14.5 | 17.7 | 0.00 | 0.00 | 0.00 | 65 | 1001.1 |
| 20260505052123 | 22 | 171 | 11.3 | 14.5 | 0.00 | 0.00 | 0.00 | 65 | 1001.3 |
| 20260505051620 | 23 | 183 | 9.7 | 16.1 | 0.00 | 0.00 | 0.00 | 65 | 1001.2 |
| 20260505051118 | 23 | 193 | 11.3 | 16.1 | 0.00 | 0.00 | 0.00 | 64 | 1001.2 |
| 20260505050616 | 23 | 200 | 8.0 | 14.5 | 0.00 | 0.00 | 0.00 | 64 | 1001.2 |
| 20260505050114 | 23 | 206 | 9.7 | 11.3 | 0.00 | 0.00 | 0.00 | 64 | 1001.4 |
| 20260505041544 | 23 | 228 | 8.0 | 14.5 | 0.00 | 0.00 | 0.00 | 64 | 1001.9 |
| 20260505041041 | 23 | 167 | 4.8 | 9.7 | 0.00 | 0.00 | 0.00 | 64 | 1001.7 |
| 20260505040538 | 23 | 195 | 3.2 | 8.0 | 0.00 | 0.00 | 0.00 | 64 | 1001.7 |
| 20260505040035 | 23 | 110 | 1.6 | 3.2 | 0.00 | 0.00 | 0.00 | 64 | 1001.8 |
| 20260505035531 | 23 | 196 | 8.0 | 9.7 | 0.00 | 0.00 | 0.00 | 64 | 1001.9 |